Search the data

BODC Cruise Metadata Report for Prince Madog (74PD) cruise PM4/95

Introduction

This report collates information from the BODC cruise inventory and oceanographic databases. It presents

Cruise Inventory Information

Long name Prince Madog (74PD) cruise PM4/95
Short name PM4/95
Objectives and Narrative
Ship Prince Madog
Departure Port
Departure Date 1995-07-17
Arrival Port
Arrival Date 1995-07-20
Principal Scientist(s)
Responsible Organisation Overseas Scientific and Technical Research Office
Associated Project(s)
IHB Sea Areas Visited
Marsden Squares Visited
Work Area Description
Work Area Bounding Polygon
Southern Limit unknown
Northern Limit unknown
Western Limit unknown
Eastern Limit unknown

Cruise Inventory Datasets

No information on datasets is currently available for this cruise

Cruise Inventory Mooring/Buoy Operations

No information on datasets is currently available

Summary of BODC Data Holdings for the Cruise

National Oceanographic Database

Summary

# Series Instrument Description Parameters
52 CTD/STD cast Reference numbers
Salinity of the water column
Temperature of the water column
Vertical spatial coordinates

Note: Parameter terms are taken from the BODC Parameter Discovery Vocabulary XML (SKOS)

Full List

BODC Reference Instrument Description Date/Time Location  
490316 CTD/STD cast 1995-07-18 13:28Z 54° 30' N, 5° 19' W Click for more
490328 CTD/STD cast 1995-07-18 04:08Z 54° 30' N, 5° 10' W Click for more
490341 CTD/STD cast 1995-07-18 03:08Z 54° 30' N, 5° 0' W Click for more
490353 CTD/STD cast 1995-07-18 02:08Z 54° 30' N, 4° 49' W Click for more
490365 CTD/STD cast 1995-07-18 01:04Z 54° 30' N, 4° 40' W Click for more
490377 CTD/STD cast 1995-07-17 23:44Z 54° 30' N, 4° 30' W Click for more
490389 CTD/STD cast 1995-07-18 22:47Z 54° 19' N, 5° 19' W Click for more
490390 CTD/STD cast 1995-07-18 15:35Z 54° 19' N, 5° 10' W Click for more
490408 CTD/STD cast 1995-07-18 16:30Z 54° 19' N, 5° 0' W Click for more
490421 CTD/STD cast 1995-07-18 17:20Z 54° 19' N, 4° 49' W Click for more
490433 CTD/STD cast 1995-07-18 18:13Z 54° 19' N, 4° 40' W Click for more
490445 CTD/STD cast 1995-07-19 01:07Z 54° 10' N, 5° 48' W Click for more
490457 CTD/STD cast 1995-07-19 00:26Z 54° 10' N, 5° 40' W Click for more
490469 CTD/STD cast 1995-07-18 23:30Z 54° 10' N, 5° 30' W Click for more
490470 CTD/STD cast 1995-07-18 22:25Z 54° 10' N, 5° 19' W Click for more
490482 CTD/STD cast 1995-07-18 21:23Z 54° 10' N, 5° 10' W Click for more
490494 CTD/STD cast 1995-07-18 20:30Z 54° 10' N, 5° 0' W Click for more
490501 CTD/STD cast 1995-07-18 19:15Z 54° 10' N, 4° 49' W Click for more
490513 CTD/STD cast 1995-07-19 02:40Z 54° 0' N, 5° 58' W Click for more
490525 CTD/STD cast 1995-07-19 03:25Z 54° 0' N, 5° 49' W Click for more
490537 CTD/STD cast 1995-07-19 04:12Z 54° 0' N, 5° 40' W Click for more
490549 CTD/STD cast 1995-07-19 05:00Z 54° 0' N, 5° 30' W Click for more
490550 CTD/STD cast 1995-07-19 06:00Z 54° 0' N, 5° 19' W Click for more
490562 CTD/STD cast 1995-07-19 07:03Z 54° 0' N, 5° 10' W Click for more
490574 CTD/STD cast 1995-07-19 07:56Z 54° 0' N, 5° 0' W Click for more
490586 CTD/STD cast 1995-07-19 08:58Z 54° 0' N, 4° 49' W Click for more
490598 CTD/STD cast 1995-07-19 17:54Z 53° 49' N, 6° 10' W Click for more
490605 CTD/STD cast 1995-07-19 17:00Z 53° 49' N, 6° 0' W Click for more
490617 CTD/STD cast 1995-07-19 16:10Z 53° 49' N, 5° 49' W Click for more
490629 CTD/STD cast 1995-07-19 15:20Z 53° 49' N, 5° 40' W Click for more
490630 CTD/STD cast 1995-07-19 14:08Z 53° 49' N, 5° 30' W Click for more
490642 CTD/STD cast 1995-07-19 13:10Z 53° 49' N, 5° 19' W Click for more
490654 CTD/STD cast 1995-07-19 12:10Z 53° 49' N, 5° 10' W Click for more
490666 CTD/STD cast 1995-07-19 11:55Z 53° 49' N, 5° 0' W Click for more
490678 CTD/STD cast 1995-07-19 10:19Z 53° 49' N, 4° 49' W Click for more
490691 CTD/STD cast 1995-07-19 19:20Z 53° 40' N, 6° 0' W Click for more
490709 CTD/STD cast 1995-07-19 20:24Z 53° 40' N, 5° 49' W Click for more
490710 CTD/STD cast 1995-07-19 21:22Z 53° 40' N, 5° 40' W Click for more
490722 CTD/STD cast 1995-07-19 22:19Z 53° 40' N, 5° 30' W Click for more
490734 CTD/STD cast 1995-07-19 23:25Z 53° 40' N, 5° 19' W Click for more
490746 CTD/STD cast 1995-07-20 00:16Z 53° 40' N, 5° 10' W Click for more
490758 CTD/STD cast 1995-07-20 01:09Z 53° 40' N, 5° 0' W Click for more
490771 CTD/STD cast 1995-07-20 08:18Z 53° 30' N, 5° 58' W Click for more
490783 CTD/STD cast 1995-07-20 07:30Z 53° 30' N, 5° 49' W Click for more
490795 CTD/STD cast 1995-07-20 06:17Z 53° 30' N, 5° 40' W Click for more
490802 CTD/STD cast 1995-07-20 05:25Z 53° 30' N, 5° 30' W Click for more
490814 CTD/STD cast 1995-07-20 04:36Z 53° 30' N, 5° 19' W Click for more
490826 CTD/STD cast 1995-07-20 03:40Z 53° 30' N, 5° 9' W Click for more
490838 CTD/STD cast 1995-07-20 09:30Z 53° 19' N, 5° 49' W Click for more
490851 CTD/STD cast 1995-07-20 10:20Z 53° 19' N, 5° 40' W Click for more
490863 CTD/STD cast 1995-07-20 11:07Z 53° 19' N, 5° 30' W Click for more
490875 CTD/STD cast 1995-07-20 11:59Z 53° 19' N, 5° 19' W Click for more

Project Database

No data currently held for this cruise in the BODC Project Database

References

Track Charts

No track charts currently available

Reports

No reports currently available